Flag for Germany Weather past 2 weeks in Kaiserslautern, Rhineland-Palatinate, Germany

Now
64 °F

Scattered clouds.


Feels Like: 64 °F
Forecast: 45 / 69 °F
Wind: 9 mph from West

Location: Ramstein

Current Time: Aug 20, 2014 at 5:24:48 PM

Latest Report: Aug 20, 2014 at 4:58 PM


Visibility: N/A

Pressure: 30.02 "Hg

Humidity: 48%

Dew point: 44 °F

Location of KaiserslauternLocation

Historic Weather in Kaiserslautern — Graph

°F

Kaiserslautern temperature yesterday

Maximum temperature yesterday: 68 °F (at 3:58 PM)
Minimum temperature yesterday: 43 °F (at 6:58 AM)
Average temperature yesterday: 55 °F

Past Weeks' High & Low Weather Summary

 TemperatureHumidityPressure
High79 °F (Aug 10, 3:58 PM)100% (Aug 6, 12:58 AM)30.15 "Hg (Aug 6, 12:58 AM)
Low39 °F (Aug 20, 4:58 AM)35% (Aug 6, 3:58 PM)29.64 "Hg (Aug 13, 4:58 PM)
Average61 °F76%29.93 "Hg
* Reported Aug 5 3:58 PM — Aug 20 3:58 PM, Kaiserslautern, Weather by CustomWeather, © 2014

Note: Actual official high and low records may vary slightly from our data, if they occured in-between our weather recording intervals... More about our weather records

Advertising

Kaiserslautern weather history for previous 24 hours

 ConditionsComfort  
Time TempWeatherWind HumidityBarometerVisibility
3:58 PM
Aug 20
63 °FBroken clouds.3 mph52%30.03 "HgN/A
2:58 PM63 °FSunny.3 mph50%30.04 "HgN/A
1:58 PM63 °FPassing clouds.5 mph52%30.05 "HgN/A
12:58 PM61 °FPartly sunny.2 mph55%30.06 "HgN/A
11:58 AM59 °FPassing clouds.3 mph66%30.06 "HgN/A
10:58 AM56 °FPassing clouds.2 mph74%30.07 "HgN/A
9:58 AM52 °FPartly sunny.No wind82%30.07 "HgN/A
8:58 AM49 °FPartly sunny.2 mph90%30.07 "HgN/A
7:58 AM47 °FBroken clouds.1 mph96%30.06 "HgN/A
6:58 AM45 °FPassing clouds.1 mph93%30.06 "HgN/A
5:58 AM43 °FOvercast.2 mph100%30.04 "HgN/A
4:58 AM39 °FPassing clouds.1 mph93%30.05 "HgN/A
4:02 AM41 °FFog.1 mph93%30.03 "Hg1 mi
3:58 AM41 °FFog.2 mph100%30.04 "Hg3 mi
2:58 AM43 °FPassing clouds.No wind93%30.03 "HgN/A
1:58 AM46 °FClear.6 mph93%30.02 "HgN/A
12:58 AM50 °FClear.2 mph94%30.03 "HgN/A
12:04 AM48 °FFog.No wind94%30.01 "Hg2 mi
12:01 AM50 °FFog.No wind94%30.01 "Hg2 mi
10:58 PM
Aug 19
52 °FPassing clouds.No wind94%29.99 "HgN/A
9:58 PM54 °FPassing clouds.1 mph94%29.98 "HgN/A
8:58 PM54 °FOvercast.No wind88%29.98 "HgN/A
7:58 PM60 °FDrizzle. Broken clouds.6 mph70%29.96 "HgN/A
7:03 PM61 °FScattered clouds.5 mph72%29.93 "HgN/A
6:58 PM61 °FScattered clouds.5 mph72%29.94 "HgN/A
5:58 PM61 °FLight rain. Broken clouds.9 mph67%29.94 "HgN/A
Weather by CustomWeather, © 2014

See weather overviewHow to use our weather pages